Simultaneous Nadir Overpasses (SNOs) Predictions

Prediction of SNOs between METOP-B and NOAA-19 Satellite Orbit:

Table of predicted SNOs for the next 14.0 days since TLE Epoch: 1/28/2024
Index Date (METOP-B) Time (METOP-B) Lat,Lon (METOP-B) SZA (METOP-B ) Date (NOAA-19) Time (NOAA-19) Lat,Lon (NOAA-19) SZA (NOAA-19 ) Distance(km) Time Diff (sec)
1 01/30/2024 09:17:03 80.21, 63.45 98.44 01/30/2024 09:15:49 80.20, 63.36 98.41 1.85 74
2 01/30/2024 10:07:43 -80.24,-128.82 81.52 01/30/2024 10:06:51 -80.24,-128.88 81.54 1.36 52
3 01/30/2024 10:58:23 80.25, 38.65 98.49 01/30/2024 10:57:45 80.26, 38.66 98.49 0.22 38
4 01/30/2024 11:49:03 -80.29,-153.62 81.47 01/30/2024 11:48:47 -80.29,-153.58 81.47 0.70 16
5 01/30/2024 12:39:43 80.30, 13.84 98.55 01/30/2024 12:39:41 80.31, 13.96 98.56 2.30 2
6 01/30/2024 13:30:24 -80.31,-178.74 81.45 01/30/2024 13:30:44 -80.32,-178.61 81.43 2.71 20
7 01/30/2024 14:21:03 80.35, -10.95 98.60 01/30/2024 14:21:38 80.34, -11.06 98.60 2.23 35
8 01/30/2024 15:11:44 -80.36, 156.47 81.40 01/30/2024 15:12:41 -80.35, 156.37 81.39 1.86 57
9 01/30/2024 16:02:24 80.37, -36.07 98.62 01/30/2024 16:03:35 80.37, -36.07 98.63 0.24 71
10 02/11/2024 03:24:26 80.11, 150.50 94.74 02/11/2024 03:23:26 80.11, 150.50 94.73 0.32 60



Historial Predications of SNOs between METOP-B and NOAA-19
